Showing default

OPS 6564 (VELA 6), 1459

Orbit data source: Space-Track

OPS 6564 (VELA 6), 1459 is a payload satellite owned by USAF SSD (US) in HEO that was launched on Tue, 20 Jul 1965 UTC via an ATLAS AGENA D launch vehicle from the Air Force Eastern Test Range (AFETR). Payload-class satellites include a variety of spacecraft equipped with specific instruments for various scientific and technological missions. These include communications satellites like Starlink; space stations such as the ISS; scientific satellites like the Hubble; Earth observation satellites from companies like Planet Labs, Umbra, and HawkEye 360; GPS; miniature CubeSats for education and research; and military/defense satellites.

Not visible in the next 10 days
Identifier
1459, 1965-058B
Orbit
HEO
Country
Flag of USUS
Related business
Manufacturer
TRW
Mission
Spacecraft
Bus & Motor
VELA, BE-3A
Mass
~224 kg wet, 132 kg dry
Launch date (UTC)
1965-07-20 (61 years ago)
Launch vehicle
ATLAS AGENA D
Launch site
Air Force Eastern Test Range (AFETR)
Object type
Payload
Rocket body
Debris
Shape & HBR
POLY, 1.1 m
Radar Cross Section
Medium (>0.1 m² and <1 m²)

Expand to show TLE details & history
Last TLE update: 4 weeks ago

TLE from 4 weeks ago
0 OPS 6564 (VELA 6)
1 01459U 65058B   26232.09412380 -.00001187  00000-0  00000-0 0  9993
2 01459  41.6182 357.8346 4847933  96.8287   1.9515  0.21366342  9374
Epoch: 2026-08-20T02:15Z
TLE epoch observation values (Epoch: 2026-08-20T02:15:32.296Z)
Latitude
40.90547°
Longitude
98.60335°
Altitude
54,681.814 km
Speed
3.112 km/s
True Right ascension
06h 43m 42s
True Declination
40° 53' 08"
Sunlit
Object was in daylight at epoch
Visualization orbit readout
Latitude
Unknown
Longitude
Unknown
Altitude
Unknown
Speed
Unknown
Apparent Right ascension
Unknown
Apparent Declination
Unknown
Sunlit
N/A
Visualization observer readout
Local Sidereal Time
11:13:13
Azimuth
Unknown
Elevation
Unknown
Doppler factor
Unknown
Orbital elements
Apogee altitude
169,110.371 km
Perigee altitude
54,514.416 km
Semi-major axis
118,190.531 km
Eccentricity
0.48479
Inclination
41.6182°
RAAN
357.8346°
Arg. of periapsis
96.8287°
True anomaly
6.42148°
Mean anomaly
1.9515°
Eccentric anomaly
3.78521°
Mean motion
0.05342 °/min
Orbital period
6,739.59 mins
BSTAR
0
Loading maneuver chart data...
Computing Atmospheric mass density...
Loading historical data...
Loading historical data...
Loading historical data...
Loading historical data...
Loading historical data...
Loading historical data...
Loading historical data...
Other satellites on launch #58 in the year 1965 (1965-07-20 UTC)

Documentation

Showing up to 5 results
|